Time,TemperatureF,DewpointF,PressureIn,WindDirection,WindDirectionDegrees,WindSpeedMPH,WindSpeedGustMPH,Humidity,HourlyPrecipIn,Conditions,Clouds,dailyrainin,SolarRadiationWatts/m^2,SoftwareType,DateUTC
2013-06-10 00:00:00,67.0,53.0,-100.00,East,90,7.0,-999.0,60,-99.99,,,-99.99,0.000000,,2013-06-10 04:00:00,
2013-06-10 00:33:00,67.0,53.0,-100.00,East,90,7.0,-999.0,60,-99.99,,,-99.99,0.000000,,2013-06-10 04:33:00,
2013-06-10 00:42:00,67.0,53.0,-100.00,East,90,7.0,-999.0,60,-99.99,,,-99.99,0.000000,,2013-06-10 04:42:00,
2013-06-10 00:53:00,67.0,53.0,-100.00,East,90,7.0,-999.0,60,-99.99,,,-99.99,0.000000,,2013-06-10 04:53:00,
2013-06-10 01:00:00,66.0,53.0,-100.00,ESE,112,7.0,-999.0,61,-99.99,,,-99.99,0.000000,,2013-06-10 05:00:00,
2013-06-10 01:32:00,66.0,53.0,-100.00,ESE,112,7.0,-999.0,61,-99.99,,,-99.99,0.000000,,2013-06-10 05:32:00,
2013-06-10 01:42:00,66.0,53.0,-100.00,ESE,112,7.0,-999.0,61,-99.99,,,-99.99,0.000000,,2013-06-10 05:42:00,
2013-06-10 01:52:00,66.0,53.0,-100.00,ESE,112,7.0,-999.0,61,-99.99,,,-99.99,0.000000,,2013-06-10 05:52:00,
2013-06-10 02:00:00,66.0,53.0,-100.00,ESE,112,7.0,-999.0,63,-99.99,,,-99.99,0.000000,,2013-06-10 06:00:00,
2013-06-10 02:32:00,66.0,53.0,-100.00,ESE,112,7.0,-999.0,63,-99.99,,,-99.99,0.000000,,2013-06-10 06:32:00,
2013-06-10 02:42:00,66.0,53.0,-100.00,ESE,112,7.0,-999.0,63,-99.99,,,-99.99,0.000000,,2013-06-10 06:42:00,
2013-06-10 02:53:00,66.0,53.0,-100.00,ESE,112,7.0,-999.0,63,-99.99,,,-99.99,0.000000,,2013-06-10 06:53:00,
2013-06-10 03:00:00,65.0,55.0,-100.00,ESE,112,7.0,-999.0,69,-99.99,,,-99.99,0.000000,,2013-06-10 07:00:00,
2013-06-10 03:32:00,65.0,55.0,-100.00,ESE,112,7.0,-999.0,69,-99.99,,,-99.99,0.000000,,2013-06-10 07:32:00,
2013-06-10 03:42:00,65.0,55.0,-100.00,ESE,112,7.0,-999.0,69,-99.99,,,-99.99,0.000000,,2013-06-10 07:42:00,
2013-06-10 03:52:00,65.0,55.0,-100.00,ESE,112,7.0,-999.0,69,-99.99,,,-99.99,0.000000,,2013-06-10 07:52:00,
2013-06-10 04:00:00,61.0,58.0,-100.00,ESE,112,6.0,-999.0,88,0.06,,,-99.99,1.160000,,2013-06-10 08:00:00,
2013-06-10 04:32:00,61.0,58.0,-100.00,ESE,112,6.0,-999.0,88,0.06,,,-99.99,1.160000,,2013-06-10 08:32:00,
2013-06-10 04:42:00,61.0,58.0,-100.00,ESE,112,6.0,-999.0,88,0.06,,,-99.99,1.160000,,2013-06-10 08:42:00,
2013-06-10 04:52:00,61.0,58.0,-100.00,ESE,112,6.0,-999.0,88,0.06,,,-99.99,1.160000,,2013-06-10 08:52:00,
2013-06-10 05:00:00,61.0,59.0,-100.00,East,90,5.0,-999.0,92,0.02,,,-99.99,1.160000,,2013-06-10 09:00:00,
2013-06-10 05:32:00,61.0,59.0,-100.00,East,90,5.0,-999.0,92,0.02,,,-99.99,1.160000,,2013-06-10 09:32:00,
2013-06-10 05:43:00,61.0,59.0,-100.00,East,90,5.0,-999.0,92,0.02,,,-99.99,1.160000,,2013-06-10 09:43:00,
2013-06-10 05:53:00,61.0,59.0,-100.00,East,90,5.0,-999.0,92,0.02,,,-99.99,1.160000,,2013-06-10 09:53:00,
2013-06-10 06:00:00,61.0,59.0,-100.00,East,90,5.0,-999.0,93,0.10,,,-99.99,1.160000,,2013-06-10 10:00:00,
2013-06-10 06:33:00,61.0,59.0,-100.00,East,90,5.0,-999.0,93,0.10,,,-99.99,1.160000,,2013-06-10 10:33:00,
2013-06-10 06:42:00,61.0,59.0,-100.00,East,90,5.0,-999.0,93,0.10,,,-99.99,1.160000,,2013-06-10 10:42:00,
2013-06-10 06:52:00,61.0,59.0,-100.00,East,90,5.0,-999.0,93,0.10,,,-99.99,1.160000,,2013-06-10 10:52:00,
2013-06-10 07:00:00,61.0,59.0,-100.00,East,90,5.0,-999.0,94,0.01,,,-99.99,5.800000,,2013-06-10 11:00:00,
2013-06-10 07:32:00,61.0,59.0,-100.00,East,90,5.0,-999.0,94,0.01,,,-99.99,5.800000,,2013-06-10 11:32:00,
2013-06-10 07:42:00,61.0,59.0,-100.00,East,90,5.0,-999.0,94,0.01,,,-99.99,5.800000,,2013-06-10 11:42:00,
2013-06-10 07:52:00,61.0,59.0,-100.00,East,90,5.0,-999.0,94,0.01,,,-99.99,5.800000,,2013-06-10 11:52:00,
2013-06-10 08:00:00,61.0,60.0,-100.00,East,90,5.0,-999.0,94,-99.99,,,-99.99,20.879999,,2013-06-10 12:00:00,
2013-06-10 08:32:00,61.0,60.0,-100.00,East,90,5.0,-999.0,94,-99.99,,,-99.99,20.879999,,2013-06-10 12:32:00,
2013-06-10 08:42:00,61.0,60.0,-100.00,East,90,5.0,-999.0,94,-99.99,,,-99.99,20.879999,,2013-06-10 12:42:00,
2013-06-10 08:52:00,61.0,60.0,-100.00,East,90,5.0,-999.0,94,-99.99,,,-99.99,20.879999,,2013-06-10 12:52:00,
2013-06-10 09:00:00,62.0,59.0,-100.00,East,90,4.0,-999.0,91,-99.99,,,-99.99,59.160000,,2013-06-10 13:00:00,
2013-06-10 09:32:00,62.0,59.0,-100.00,East,90,4.0,-999.0,91,-99.99,,,-99.99,59.160000,,2013-06-10 13:32:00,
2013-06-10 09:42:00,62.0,59.0,-100.00,East,90,4.0,-999.0,91,-99.99,,,-99.99,59.160000,,2013-06-10 13:42:00,
2013-06-10 09:52:00,62.0,59.0,-100.00,East,90,4.0,-999.0,91,-99.99,,,-99.99,59.160000,,2013-06-10 13:52:00,
2013-06-10 10:00:00,62.0,59.0,-100.00,East,90,5.0,-999.0,90,0.25,,,-99.99,90.480003,,2013-06-10 14:00:00,
2013-06-10 10:32:00,62.0,59.0,-100.00,East,90,5.0,-999.0,90,0.25,,,-99.99,90.480003,,2013-06-10 14:32:00,
2013-06-10 10:42:00,62.0,59.0,-100.00,East,90,5.0,-999.0,90,0.25,,,-99.99,90.480003,,2013-06-10 14:42:00,
2013-06-10 10:52:00,62.0,59.0,-100.00,East,90,5.0,-999.0,90,0.25,,,-99.99,90.480003,,2013-06-10 14:52:00,
2013-06-10 11:00:00,63.0,61.0,-100.00,East,90,5.0,-999.0,93,0.03,,,-99.99,204.160004,,2013-06-10 15:00:00,
2013-06-10 11:33:00,63.0,61.0,-100.00,East,90,5.0,-999.0,93,0.03,,,-99.99,204.160004,,2013-06-10 15:33:00,
2013-06-10 11:43:00,63.0,61.0,-100.00,East,90,5.0,-999.0,93,0.03,,,-99.99,204.160004,,2013-06-10 15:43:00,
2013-06-10 11:53:00,63.0,61.0,-100.00,East,90,5.0,-999.0,93,0.03,,,-99.99,204.160004,,2013-06-10 15:53:00,
2013-06-10 12:00:00,63.0,61.0,-100.00,East,90,7.0,-999.0,91,-99.99,,,-99.99,163.559998,,2013-06-10 16:00:00,
2013-06-10 12:33:00,63.0,61.0,-100.00,East,90,7.0,-999.0,91,-99.99,,,-99.99,163.559998,,2013-06-10 16:33:00,
2013-06-10 12:43:00,63.0,61.0,-100.00,East,90,7.0,-999.0,91,-99.99,,,-99.99,163.559998,,2013-06-10 16:43:00,
2013-06-10 12:53:00,63.0,61.0,-100.00,East,90,7.0,-999.0,91,-99.99,,,-99.99,163.559998,,2013-06-10 16:53:00,
2013-06-10 13:00:00,64.0,61.0,-100.00,East,90,6.0,-999.0,90,-99.99,,,-99.99,203.000000,,2013-06-10 17:00:00,
2013-06-10 13:38:00,64.0,61.0,-100.00,East,90,6.0,-999.0,90,-99.99,,,-99.99,203.000000,,2013-06-10 17:38:00,
2013-06-10 13:48:00,64.0,61.0,-100.00,East,90,6.0,-999.0,90,-99.99,,,-99.99,203.000000,,2013-06-10 17:48:00,
2013-06-10 13:58:00,64.0,61.0,-100.00,East,90,6.0,-999.0,90,-99.99,,,-99.99,203.000000,,2013-06-10 17:58:00,
2013-06-10 14:00:00,66.0,62.0,-100.00,East,90,6.0,-999.0,87,-99.99,,,-99.99,281.880005,,2013-06-10 18:00:00,
2013-06-10 14:35:00,66.0,62.0,-100.00,East,90,6.0,-999.0,87,-99.99,,,-99.99,281.880005,,2013-06-10 18:35:00,
2013-06-10 14:48:00,66.0,62.0,-100.00,East,90,6.0,-999.0,87,-99.99,,,-99.99,281.880005,,2013-06-10 18:48:00,
2013-06-10 14:55:00,66.0,62.0,-100.00,East,90,6.0,-999.0,87,-99.99,,,-99.99,281.880005,,2013-06-10 18:55:00,
2013-06-10 15:00:00,69.0,63.0,-100.00,ESE,112,4.0,-999.0,80,-99.99,,,-99.99,396.720001,,2013-06-10 19:00:00,
2013-06-10 15:33:00,69.0,63.0,-100.00,ESE,112,4.0,-999.0,80,-99.99,,,-99.99,396.720001,,2013-06-10 19:33:00,
2013-06-10 15:43:00,69.0,63.0,-100.00,ESE,112,4.0,-999.0,80,-99.99,,,-99.99,396.720001,,2013-06-10 19:43:00,
2013-06-10 15:53:00,69.0,63.0,-100.00,ESE,112,4.0,-999.0,80,-99.99,,,-99.99,396.720001,,2013-06-10 19:53:00,
2013-06-10 16:00:00,70.0,63.0,-100.00,South,180,3.0,-999.0,78,-99.99,,,-99.99,220.399994,,2013-06-10 20:00:00,
2013-06-10 16:32:00,70.0,63.0,-100.00,South,180,3.0,-999.0,78,-99.99,,,-99.99,220.399994,,2013-06-10 20:32:00,
2013-06-10 16:43:00,70.0,63.0,-100.00,South,180,3.0,-999.0,78,-99.99,,,-99.99,220.399994,,2013-06-10 20:43:00,
2013-06-10 16:53:00,70.0,63.0,-100.00,South,180,3.0,-999.0,78,-99.99,,,-99.99,220.399994,,2013-06-10 20:53:00,
2013-06-10 17:00:00,70.0,63.0,-100.00,West,270,2.0,-999.0,79,-99.99,,,-99.99,165.880005,,2013-06-10 21:00:00,
2013-06-10 17:34:00,70.0,63.0,-100.00,West,270,2.0,-999.0,79,-99.99,,,-99.99,165.880005,,2013-06-10 21:34:00,
2013-06-10 17:43:00,70.0,63.0,-100.00,West,270,2.0,-999.0,79,-99.99,,,-99.99,165.880005,,2013-06-10 21:43:00,
2013-06-10 17:53:00,70.0,63.0,-100.00,West,270,2.0,-999.0,79,-99.99,,,-99.99,165.880005,,2013-06-10 21:53:00,
2013-06-10 18:00:00,69.0,63.0,-100.00,SW,225,2.0,-999.0,79,-99.99,,,-99.99,190.240005,,2013-06-10 22:00:00,
2013-06-10 18:33:00,69.0,63.0,-100.00,SW,225,2.0,-999.0,79,-99.99,,,-99.99,190.240005,,2013-06-10 22:33:00,
2013-06-10 18:42:00,69.0,63.0,-100.00,SW,225,2.0,-999.0,79,-99.99,,,-99.99,190.240005,,2013-06-10 22:42:00,
2013-06-10 18:52:00,69.0,63.0,-100.00,SW,225,2.0,-999.0,79,-99.99,,,-99.99,190.240005,,2013-06-10 22:52:00,
2013-06-10 19:00:00,71.0,63.0,-100.00,West,270,4.0,-999.0,74,-99.99,,,-99.99,276.079987,,2013-06-10 23:00:00,
2013-06-10 19:32:00,71.0,63.0,-100.00,West,270,4.0,-999.0,74,-99.99,,,-99.99,276.079987,,2013-06-10 23:32:00,
2013-06-10 19:42:00,71.0,63.0,-100.00,West,270,4.0,-999.0,74,-99.99,,,-99.99,276.079987,,2013-06-10 23:42:00,
2013-06-10 19:52:00,71.0,63.0,-100.00,West,270,4.0,-999.0,74,-99.99,,,-99.99,276.079987,,2013-06-10 23:52:00,
2013-06-10 20:00:00,69.0,62.0,-100.00,WSW,247,2.0,-999.0,79,-99.99,,,-99.99,76.559998,,2013-06-11 00:00:00,
2013-06-10 20:32:00,69.0,62.0,-100.00,WSW,247,2.0,-999.0,79,-99.99,,,-99.99,76.559998,,2013-06-11 00:32:00,
2013-06-10 20:43:00,69.0,62.0,-100.00,WSW,247,2.0,-999.0,79,-99.99,,,-99.99,76.559998,,2013-06-11 00:43:00,
2013-06-10 20:52:00,69.0,62.0,-100.00,WSW,247,2.0,-999.0,79,-99.99,,,-99.99,76.559998,,2013-06-11 00:52:00,
2013-06-10 21:00:00,68.0,62.0,-100.00,SSE,157,1.0,-999.0,82,-99.99,,,-99.99,32.480000,,2013-06-11 01:00:00,
2013-06-10 21:33:00,68.0,62.0,-100.00,SSE,157,1.0,-999.0,82,-99.99,,,-99.99,32.480000,,2013-06-11 01:33:00,
2013-06-10 21:42:00,68.0,62.0,-100.00,SSE,157,1.0,-999.0,82,-99.99,,,-99.99,32.480000,,2013-06-11 01:42:00,
2013-06-10 21:53:00,68.0,62.0,-100.00,SSE,157,1.0,-999.0,82,-99.99,,,-99.99,32.480000,,2013-06-11 01:53:00,
2013-06-10 22:00:00,66.0,61.0,-100.00,ENE,67,0.0,-999.0,86,-99.99,,,-99.99,1.160000,,2013-06-11 02:00:00,
2013-06-10 22:32:00,66.0,61.0,-100.00,ENE,67,0.0,-999.0,86,-99.99,,,-99.99,1.160000,,2013-06-11 02:32:00,
2013-06-10 22:43:00,66.0,61.0,-100.00,ENE,67,0.0,-999.0,86,-99.99,,,-99.99,1.160000,,2013-06-11 02:43:00,
2013-06-10 22:52:00,66.0,61.0,-100.00,ENE,67,0.0,-999.0,86,-99.99,,,-99.99,1.160000,,2013-06-11 02:52:00,
2013-06-10 23:00:00,62.0,59.0,-100.00,SE,135,1.0,-999.0,91,-99.99,,,-99.99,0.000000,,2013-06-11 03:00:00,
2013-06-10 23:33:00,62.0,59.0,-100.00,SE,135,1.0,-999.0,91,-99.99,,,-99.99,0.000000,,2013-06-11 03:33:00,
2013-06-10 23:43:00,62.0,59.0,-100.00,SE,135,1.0,-999.0,91,-99.99,,,-99.99,0.000000,,2013-06-11 03:43:00,
2013-06-10 23:53:00,62.0,59.0,-100.00,SE,135,1.0,-999.0,91,-99.99,,,-99.99,0.000000,,2013-06-11 03:53:00,